Location: Newark
(63.1158°N, 8.1461°E)
Time: 20:44:11
(UTC+00:00)

Envisat - Pass Details

Date: 19 December 2019
Orbit: 764 x 766 km, 98.1° (Epoch: 18 January)

Event Time Altitude Azimuth Distance (km) Brightness Sun altitude
Rises 07:19:14 0° 18° (NNE) 3,250 6.1 -8.9°
Reaches altitude 10° 07:21:33 10° 16° (NNE) 2,320 5.3 -8.7°
Maximum altitude 07:26:37 67° 295° (WNW) 836 3.0 -8.2°
Drops below altitude 10° 07:31:39 10° 214° (SW) 2,305 5.5 -7.8°
Sets 07:33:58 0° 212° (SSW) 3,228 6.3 -7.6°
